Location: Bangkok
(13.7500°N, 100.5170°E)
Time: 17:52:34
(UTC+07:00)

Hubble Space Telescope - Visible Passes

Search period start: 03 September 2015 00:00
Search period end: 13 September 2015 00:00
Orbit: 541 x 545 km, 28.5° (Epoch: 01 September)

Date Brightness Start Highest point End Pass type
(mag) Time Alt. Az. Time Alt. Az. Time Alt. Az.
03 Sep 2.2 04:18:04 31° NNE 04:18:04 31° NNE 04:20:46 10° NE visible
04 Sep 2.8 04:09:43 22° NNE 04:09:43 22° NNE 04:11:40 10° NE visible
04 Sep 3.2 05:48:01 10° NW 05:49:54 13° N 05:51:43 10° NNE visible
05 Sep 3.3 04:01:20 16° NNE 04:01:20 16° NNE 04:02:32 10° NE visible
05 Sep 3.3 05:39:48 10° NNW 05:41:09 11° N 05:42:28 10° NNE visible
06 Sep 3.7 03:52:55 12° NNE 03:52:55 12° NNE 03:53:23 10° NNE visible
06 Sep 3.4 05:31:36 10° NNW 05:32:25 10° N 05:33:13 10° N visible
07 Sep 3.5 05:23:27 10° N 05:23:42 10° N 05:23:56 10° N visible
08 Sep 3.5 05:14:47 10° N 05:14:59 10° N 05:15:10 10° N visible
09 Sep 3.5 05:05:29 10° N 05:06:14 10° N 05:07:01 10° NNE visible
10 Sep 3.4 04:56:14 10° NNW 04:57:30 11° N 04:58:49 10° NNE visible
11 Sep 3.4 04:46:59 10° NNW 04:48:45 12° N 04:50:34 10° NE visible
12 Sep 3.3 04:38:10 11° NNW 04:39:59 14° NNE 04:42:16 10° NE visible
